This is the latest recevied weather packets stored in our database for station/object N7NMS-13. If no packets are shown the sender has not sent any weather packets the latest 10 day(s).
| Time | Temp. | Humidity | Pressure | Rain* | Wind** | Luminosity | Snow |
|---|---|---|---|---|---|---|---|
| 1777135241 | 13.89° C | 96% | - | 0 mm | - | - | - |
| 1777134641 | 13.89° C | 96% | - | 0 mm | - | - | - |
| 1777134041 | 14.44° C | 96% | - | 0 mm | - | - | - |
| 1777133441 | 14.44° C | 96% | - | 0 mm | - | - | - |
| 1777132841 | 13.89° C | 96% | - | 0 mm | - | - | - |
| 1777132211 | 13.89° C | 95% | - | 0 mm | - | - | - |
| 1777131581 | 13.89° C | 95% | - | 0 mm | - | - | - |
| 1777130981 | 14.44° C | 95% | - | 0 mm | - | - | - |
| 1777130351 | 14.44° C | 95% | - | 0 mm | - | - | - |
| 1777129721 | 14.44° C | 93% | - | 0 mm | - | - | - |
| 1777129121 | 15° C | 90% | - | 0 mm | - | - | - |
| 1777128521 | 15° C | 88% | - | 0 mm | - | - | - |
| 1777127920 | 15° C | 87% | - | 0 mm | - | - | - |
| 1777127320 | 15° C | 86% | - | 0 mm | - | - | - |
| 1777126720 | 15.56° C | 86% | - | 0 mm | - | - | - |
| 1777126120 | 15° C | 84% | - | 0 mm | - | - | - |
| 1777125520 | 15° C | 83% | - | 0 mm | - | - | - |
| 1777124920 | 14.44° C | 84% | - | 0 mm | - | - | - |
| 1777124319 | 15° C | 84% | - | 0 mm | - | - | - |
| 1777123719 | 13.89° C | 85% | - | 0 mm | - | - | - |
| 1777123119 | 13.33° C | 86% | - | 0 mm | - | - | - |
| 1777122519 | 13.33° C | 86% | - | 0 mm | - | - | - |
| 1777121919 | 12.78° C | 86% | - | 0 mm | - | - | - |
| 1777121319 | 12.22° C | 87% | - | 0 mm | - | - | - |
| 1777120719 | 12.22° C | 89% | - | 0 mm | - | - | - |
* Rain latest hour (hover to see other rain measurements)
** Current wind speed in m/s (hover to see current wind gust speed)